Weather History for Hot Springs, VA

Change the Weather History Date:

Sunday, August 18, 2013

  Actual Average Record
Temperature  
Mean Temperature 56 °F -  
Max Temperature 60 °F 74 °F 80 °F (1999)
Min Temperature 53 °F 59 °F 53 °F (2013)
Degree Days  
Heating Degree Days 8    
Growing Degree Days 6 (Base 50)    
Moisture  
Dew Point 58 °F    
Average Humidity 100    
Maximum Humidity 100    
Minimum Humidity 100    
Precipitation  
Precipitation 0.47 in - - ()
Sea Level Pressure  
Sea Level Pressure 30.32 in    
Wind  
Wind Speed 8 mph (ESE)    
Max Wind Speed 12 mph    
Max Gust Speed 17 mph    
Visibility 1 miles    
Events Fog , Rain    
Averages and records for this station are not official NWS values.
T = Trace of Precipitation, MM = Missing Value Source: NWS Daily Summary

Daily Weather History Graph

Daily Weather History Graph

Search for Another Location

Airport:

Trip Planner

Search our weather history database for the weather conditions in past years. The results will help you decide how hot, cold, wet, or windy it might be!

Date:

Astronomy

Aug. 18, 2013 Rise Set
Actual Time 6:37 AM EDT 8:08 PM EDT
Civil Twilight 6:09 AM EDT 8:35 PM EDT
Nautical Twilight 5:36 AM EDT 9:09 PM EDT
Astronomical Twilight 5:00 AM EDT 9:44 PM EDT
Moon 6:12 PM EDT (8/18) 3:46 AM EDT (8/18)
Length of Visible Light 14h 26m
Length of Day
13h 30m
Waxing Gibbous, 92% of the Moon is Illuminated
Aug 18
Waxing Gibbous
Aug 20
Full
Aug 28
Last Quarter
Sep 5
New
Sep 12
First Quarter

Hourly Weather History & Observations

Time (EDT) Temp. Dew Point Humidity Pressure Visibility Wind Dir Wind Speed Gust Speed Precip Events Conditions
12:15 AM 53.6 °F 53.6 °F 100% 30.33 in 0.2 mi East 11.5 mph 17.3 mph 0.01 in   Drizzle
12:35 AM 53.6 °F 53.6 °F 100% 30.32 in 0.2 mi East 11.5 mph - 0.02 in Rain Rain
12:55 AM 53.6 °F 53.6 °F 100% 30.32 in 0.2 mi East 11.5 mph - 0.01 in   Drizzle
1:15 AM 53.6 °F 53.6 °F 100% 30.32 in 0.2 mi East 9.2 mph - 0.03 in Rain Light Rain
1:35 AM 53.6 °F 53.6 °F 100% 30.31 in 0.2 mi East 8.1 mph - 0.04 in Rain Rain
1:55 AM 53.6 °F 53.6 °F 100% 30.31 in 0.2 mi East 8.1 mph - 0.01 in   Drizzle
2:15 AM 53.6 °F 53.6 °F 100% 30.30 in 0.2 mi East 6.9 mph - 0.03 in Rain Rain
2:35 AM 53.6 °F 53.6 °F 100% 30.30 in 0.2 mi East 8.1 mph - 0.05 in Rain Rain
2:55 AM 53.6 °F 53.6 °F 100% 30.30 in 0.2 mi ENE 9.2 mph - 0.01 in   Heavy Drizzle
3:15 AM 53.6 °F 53.6 °F 100% 30.30 in 0.2 mi East 8.1 mph - 0.03 in Rain Heavy Rain
3:35 AM 55.4 °F 55.4 °F 100% 30.30 in 0.2 mi East 9.2 mph - 0.06 in Rain Rain
3:55 AM 55.4 °F 55.4 °F 100% 30.29 in 0.2 mi ENE 8.1 mph - 0.01 in   Heavy Drizzle
4:15 AM 55.4 °F 55.4 °F 100% 30.29 in 0.2 mi East 10.4 mph - 0.02 in Rain Heavy Rain
4:35 AM 55.4 °F 55.4 °F 100% 30.30 in 0.2 mi ENE 9.2 mph - 0.02 in   Heavy Drizzle
4:55 AM 55.4 °F 55.4 °F 100% 30.30 in 0.2 mi ENE 10.4 mph 16.1 mph 0.01 in   Heavy Drizzle
5:15 AM 55.4 °F 55.4 °F 100% 30.30 in 0.2 mi East 8.1 mph - 0.02 in Rain Rain
5:35 AM 55.4 °F 55.4 °F 100% 30.30 in 0.2 mi ENE 8.1 mph - 0.04 in   Heavy Drizzle
5:55 AM 55.4 °F 55.4 °F 100% 30.30 in 0.2 mi East 8.1 mph - 0.01 in   Heavy Drizzle
6:15 AM 55.4 °F 55.4 °F 100% 30.30 in 0.2 mi ENE 6.9 mph - 0.03 in Rain Heavy Rain
6:35 AM 55.4 °F 55.4 °F 100% 30.30 in 0.2 mi East 6.9 mph - 0.06 in Rain Light Rain
6:55 AM 55.4 °F 55.4 °F 100% 30.31 in 0.2 mi East 6.9 mph - 0.01 in Rain Rain
7:15 AM 55.4 °F 55.4 °F 100% 30.31 in 0.2 mi East 6.9 mph - 0.03 in Rain Rain
7:35 AM 55.4 °F 55.4 °F 100% 30.32 in 0.2 mi East 8.1 mph - 0.05 in Rain Heavy Rain
7:55 AM 55.4 °F 55.4 °F 100% 30.32 in 0.2 mi East 6.9 mph - 0.02 in Rain Rain
8:15 AM 55.4 °F 55.4 °F 100% 30.33 in 0.2 mi East 6.9 mph - 0.03 in   Heavy Drizzle
8:35 AM 57.2 °F 57.2 °F 100% 30.33 in 0.2 mi East 8.1 mph - 0.04 in Rain Heavy Rain
8:55 AM 57.2 °F 57.2 °F 100% 30.34 in 0.2 mi East 5.8 mph - N/A   Drizzle
9:15 AM 57.2 °F 57.2 °F 100% 30.33 in 0.2 mi East 6.9 mph - 0.01 in Rain Light Rain
9:35 AM 57.2 °F 57.2 °F 100% 30.34 in 0.2 mi East 5.8 mph - 0.02 in Rain Light Rain
9:55 AM 57.2 °F 57.2 °F 100% 30.34 in 0.2 mi East 4.6 mph - 0.01 in Rain Light Rain
10:15 AM 57.2 °F 57.2 °F 100% 30.35 in 0.2 mi East 4.6 mph - 0.01 in Rain Rain
10:35 AM 57.2 °F 57.2 °F 100% 30.35 in 0.2 mi East 5.8 mph - 0.03 in   Drizzle
10:55 AM 57.2 °F 57.2 °F 100% 30.35 in 0.2 mi East 5.8 mph - N/A   Drizzle
11:35 AM 57.2 °F 57.2 °F 100% 30.35 in 0.2 mi ESE 5.8 mph - 0.01 in Rain Light Rain
11:55 AM 57.2 °F 57.2 °F 100% 30.36 in 0.2 mi ESE 5.8 mph - 0.01 in   Drizzle
12:15 PM 57.2 °F 57.2 °F 100% 30.36 in 0.2 mi East 4.6 mph - 0.02 in   Drizzle
12:35 PM 59.0 °F 59.0 °F 100% 30.35 in 0.2 mi East 5.8 mph - 0.03 in Fog Fog
12:55 PM 59.0 °F 59.0 °F 100% 30.34 in 0.2 mi ESE 5.8 mph - N/A Fog Fog
1:15 PM 59.0 °F 59.0 °F 100% 30.34 in 0.2 mi SE 4.6 mph - 0.01 in   Drizzle
1:35 PM 60.8 °F 60.8 °F 100% 30.35 in 0.2 mi ESE 4.6 mph - 0.01 in   Light Drizzle
1:55 PM 59.0 °F 59.0 °F 100% 30.35 in 0.2 mi SE 4.6 mph - N/A Fog Fog
2:15 PM 60.8 °F 60.8 °F 100% 30.34 in 0.2 mi ESE 5.8 mph - N/A Fog Fog
2:35 PM 60.8 °F 60.8 °F 100% 30.34 in 0.2 mi SSE 3.5 mph - N/A Fog Fog
2:55 PM 60.8 °F 60.8 °F 100% 30.34 in 0.2 mi SSE 4.6 mph - N/A Fog Fog
3:15 PM 59.0 °F 59.0 °F 100% 30.34 in 1.0 mi SE 5.8 mph - N/A   Overcast
3:35 PM 60.8 °F 60.8 °F 100% 30.33 in 0.2 mi SE 3.5 mph - N/A Fog Fog
3:55 PM 60.8 °F 60.8 °F 100% 30.33 in 0.5 mi ESE 3.5 mph - N/A Fog Fog
4:15 PM 60.8 °F 60.8 °F 100% 30.31 in 0.2 mi ESE 4.6 mph - N/A Fog Fog
4:35 PM 60.8 °F 60.8 °F 100% 30.31 in 0.2 mi East 5.8 mph - N/A Fog Fog
4:55 PM 60.8 °F 60.8 °F 100% 30.32 in 4.0 mi ESE 4.6 mph - N/A   Overcast
5:15 PM 60.8 °F 60.8 °F 100% 30.33 in 10.0 mi South 3.5 mph - N/A   Overcast
5:35 PM 60.8 °F 60.8 °F 100% 30.33 in 10.0 mi Calm Calm - N/A   Overcast
5:55 PM 60.8 °F 60.8 °F 100% 30.33 in 0.5 mi Calm Calm - N/A Fog Fog
6:15 PM 60.8 °F 60.8 °F 100% 30.33 in 0.2 mi South 3.5 mph - N/A   Drizzle
6:35 PM 60.8 °F 60.8 °F 100% 30.32 in 10.0 mi Calm Calm - N/A   Overcast
6:55 PM 60.8 °F 60.8 °F 100% 30.32 in 5.0 mi ESE 3.5 mph - N/A   Overcast
7:15 PM 59.0 °F 59.0 °F 100% 30.31 in 4.0 mi SE 5.8 mph - N/A   Overcast
7:35 PM 60.8 °F 60.8 °F 100% 30.31 in 0.5 mi SE 5.8 mph - N/A Fog Fog
7:55 PM 59.0 °F 59.0 °F 100% 30.32 in 0.2 mi SSE 3.5 mph - N/A Fog Fog
8:15 PM 59.0 °F 59.0 °F 100% 30.32 in 0.2 mi SSE 3.5 mph - N/A Fog Fog
8:35 PM 59.0 °F 59.0 °F 100% 30.33 in 0.2 mi South 3.5 mph - N/A Fog Fog
8:55 PM 59.0 °F 59.0 °F 100% 30.33 in 0.2 mi South 4.6 mph - N/A Fog Fog
9:15 PM 59.0 °F 59.0 °F 100% 30.33 in 0.5 mi South 6.9 mph - N/A Fog Fog
9:35 PM 59.0 °F 59.0 °F 100% 30.33 in 0.2 mi SSE 5.8 mph - N/A Fog Fog
9:55 PM 59.0 °F 59.0 °F 100% 30.33 in 0.2 mi SSE 5.8 mph - N/A Fog Fog
10:15 PM 59.0 °F 59.0 °F 100% 30.34 in 0.2 mi South 8.1 mph - N/A Fog Fog
10:35 PM 59.0 °F 59.0 °F 100% 30.34 in 0.2 mi SSE 8.1 mph - N/A   Drizzle
10:55 PM 59.0 °F 59.0 °F 100% 30.33 in 0.2 mi South 8.1 mph - N/A Rain Light Rain
11:15 PM 59.0 °F 59.0 °F 100% 30.33 in 0.2 mi South 10.4 mph - N/A   Drizzle
11:35 PM 59.0 °F 59.0 °F 100% 30.33 in 0.2 mi South 6.9 mph - N/A   Drizzle
11:55 PM 59.0 °F 59.0 °F 100% 30.33 in 0.2 mi South 8.1 mph - N/A   Drizzle